Flag for United Kingdom Weather past 2 weeks in Reading, England, United Kingdom

Now
61 °F

Scattered clouds.


Feels Like: 61 °F
Forecast: 56 / 66 °F
Wind: 10 mph from South

Location: Benson

Current Time: Aug 29, 2015 at 10:38:58 AM

Latest Report: Aug 29, 2015 at 9:50 AM


Visibility: N/A

Pressure: 30.12 "Hg

Humidity: 83%

Dew point: 55 °F

Location of ReadingLocation

Historic Weather in Reading — Graph

°F

Reading temperature yesterday

Maximum temperature yesterday: 66 °F (at 12:50 PM)
Minimum temperature yesterday: 48 °F (at 1:50 AM)
Average temperature yesterday: 58 °F

Past Weeks' High & Low Weather Summary

 TemperatureHumidityPressure
High84 °F (Aug 22, 2:50 PM)100% (Aug 14, 7:50 AM)30.12 "Hg (Aug 14, 7:50 AM)
Low43 °F (Aug 16, 4:50 AM)40% (Aug 17, 12:50 PM)29.45 "Hg (Aug 24, 11:50 AM)
Average61 °F79%29.87 "Hg
* Reported Aug 14 7:50 AM — Aug 29 7:50 AM, Reading, Weather by CustomWeather, © 2015

Note: Actual official high and low records may vary slightly from our data, if they occured in-between our weather recording intervals... More about our weather records

Advertising

Reading weather history for previous 24 hours

 ConditionsComfort  
Time TempWeatherWind HumidityBarometerVisibility
7:50 AM
Sat, Aug 29
57 °FBroken clouds.3 mph94%30.12 "HgN/A
6:50 AM55 °FOvercast.5 mph100%30.12 "HgN/A
5:50 AM55 °FOvercast.7 mph94%30.09 "HgN/A
4:50 AM55 °FPassing clouds.6 mph94%30.09 "HgN/A
3:50 AM55 °FPassing clouds.6 mph94%30.09 "HgN/A
2:50 AM55 °FOvercast.8 mph94%30.09 "HgN/A
1:50 AM55 °FOvercast.7 mph94%30.09 "HgN/A
12:50 AM57 °FOvercast.8 mph88%30.09 "HgN/A
11:50 PM
Fri, Aug 28
57 °FPassing clouds.6 mph88%30.09 "HgN/A
10:50 PM57 °FPassing clouds.8 mph82%30.09 "HgN/A
9:50 PM57 °FPassing clouds.6 mph82%30.07 "HgN/A
8:50 PM61 °FOvercast.8 mph72%30.07 "HgN/A
7:50 PM63 °FPartly sunny.6 mph64%30.07 "HgN/A
6:50 PM64 °FPartly sunny.7 mph60%30.04 "HgN/A
5:50 PM64 °FOvercast.8 mph60%30.04 "HgN/A
4:50 PM64 °FPartly sunny.6 mph56%30.04 "HgN/A
3:50 PM64 °FScattered clouds.8 mph60%30.01 "HgN/A
2:50 PM66 °FScattered clouds.15 mph49%30.01 "HgN/A
1:50 PM64 °FScattered clouds.15 mph56%30.01 "HgN/A
12:50 PM66 °FScattered clouds.15 mph56%30.01 "HgN/A
11:50 AM64 °FScattered clouds.13 mph56%30.01 "HgN/A
10:50 AM63 °FScattered clouds.13 mph64%30.01 "HgN/A
Weather by CustomWeather, © 2015

See weather overviewHow to use our weather pages